COSMOS 2251 DEB, 33908

Orbit data source: Space-Track

COSMOS 2251 DEB, 33908 is space debris in LEO originally from a launch on Wed, 16 Jun 1993 UTC launched from the Plesetsk Missile And Space Complex (PKMTR). The debris from Iridium 33, an American commercial communications satellite, has been tracked extensively since its accidental collision with the defunct Russian satellite Cosmos 2251 in 2009. This event, occurring at high speed in low Earth orbit (LEO), generated thousands of pieces of space debris, significantly increasing the risk of further collisions. The Iridium 33 debris cloud has impacted space traffic management and orbital debris mitigation strategies, making it a subject of ongoing study in space situational awareness.

Loading next visibility...
Identifier
33908, 1993-036DM
Orbit
LEO
Country
Flag of CISCIS
Related business
Manufacturer
Unknown
Mission
Spacecraft
Bus & Motor
Unknown
Mass
Unknown
Launch date (UTC)
1993-06-16 (33 years ago)
Launch vehicle
Unknown
Launch site
Plesetsk Missile And Space Complex (PKMTR)
Object type
Payload
Rocket body
Debris
Shape & HBR
Unknown shape, 0.1 m
Radar Cross Section
Small (<0.1 m²)

Expand to show TLE details & history
Last TLE update: 11 hours ago

TLE from 11 hours ago
0 COSMOS 2251 DEB
1 33908U 93036DM  26071.04932970  .00004558  00000-0  21681-2 0  9996
2 33908  73.8392  47.1745 0215847  54.1967 307.9018 14.08179062867304
Epoch: 2026-03-12T01:11Z
TLE epoch observation values (Epoch: 2026-03-12T01:11:02.086Z)
Latitude
0.00001°
Longitude
-140.28898°
Altitude
774.254 km
Speed
7.515 km/s
True Right ascension
03h 08m 41s
True Declination
0° 00' 00"
Sunlit
Object was in daylight at epoch
Visualization orbit readout
Latitude
Unknown
Longitude
Unknown
Altitude
Unknown
Speed
Unknown
Apparent Right ascension
Unknown
Apparent Declination
Unknown
Sunlit
N/A
Visualization observer readout
Local Sidereal Time
16:42:00
Azimuth
Unknown
Elevation
Unknown
Doppler factor
Unknown
Orbital elements
Apogee altitude
1,019.583 km
Perigee altitude
706.976 km
Semi-major axis
7,241.417 km
Eccentricity
0.02158
Inclination
73.8392°
RAAN
47.1745°
Arg. of periapsis
54.1967°
True anomaly
305.91763°
Mean anomaly
307.9018°
Eccentric anomaly
306.91299°
Mean motion
3.52215 °/min
Orbital period
102.21 mins
BSTAR
0.0021681
Loading maneuver chart data...
Computing Atmospheric mass density...
Loading historical data...
Loading historical data...
Loading historical data...
Loading historical data...
Loading historical data...
Loading historical data...
Loading historical data...

Documentation

Showing up to 5 results
|